FW0777 Weather Reports


Display with metric or nautical units.
time (UTC)temp
F
wind
direction
speed
MPH
gust
MPH
rain 1hr
in
rain 24hr
in
rain mn
in
humidity
%
barometer
mb
20181218133101 50 40 2.0 12.0 0.18 1.22 0.91 98 1003.3
20181218132201 50 346 3.0 14.0 0.18 1.19 0.88 98 1003.1
20181218131301 50 42 3.0 13.0 0.18 1.17 0.85 98 1003.1
20181218130401 50 267 3.0 14.0 0.19 1.15 0.83 98 1003.4
20181218125501 50 327 3.0 10.0 0.20 1.13 0.81 98 1003.4
20181218124601 50 19 4.0 12.0 0.19 1.10 0.78 98 1003.2
20181218123701 50 335 4.0 14.0 0.17 1.06 0.74 98 1003.6
20181218122801 50 37 3.0 11.0 0.17 1.03 0.71 98 1003.5
20181218121901 50 355 4.0 11.0 0.20 1.01 0.69 98 1003.8
20181218121001 49 306 4.0 14.0 0.22 0.98 0.66 98 1003.8
20181218120101 49 357 3.0 12.0 0.22 0.95 0.63 98 1003.8
20181218115201 49 344 4.0 18.0 0.20 0.92 0.61 98 1003.5
20181218114301 49 331 3.0 12.0 0.19 0.90 0.58 98 1003.6
20181218113401 49 36 2.0 7.0 0.17 0.87 0.56 98 1003.8
20181218112501 49 21 3.0 10.0 0.15 0.84 0.53 98 1004.1
20181218111601 49 5 4.0 11.0 0.12 0.78 0.47 98 1004.8
20181218110701 49 2 3.0 11.0 0.11 0.76 0.43 98 1004.7
20181218105801 49 352 5.0 16.0 0.11 0.74 0.41 98 1004.7
20181218104901 48 354 3.0 9.0 0.11 0.72 0.40 97 1004.7
20181218104001 48 339 3.0 9.0 0.14 0.72 0.39 97 1005.0
20181218103101 48 9 3.0 10.0 0.13 0.70 0.37 97 1004.9
20181218102201 48 47 4.0 10.0 0.13 0.68 0.35 97 1005.4
20181218101301 48 349 4.0 11.0 0.14 0.66 0.34 98 1005.5
20181218100401 48 332 3.0 17.0 0.15 0.65 0.31 98 1005.5
20181218095501 48 33 3.0 14.0 0.15 0.63 0.29 98 1005.6
20181218094601 48 334 3.0 14.0 0.16 0.61 0.27 97 1005.9
20181218093701 48 335 3.0 6.0 0.16 0.59 0.25 97 1006.0
20181218092801 48 328 3.0 10.0 0.16 0.57 0.23 97 1006.1
20181218091901 48 48 3.0 10.0 0.17 0.55 0.21 97 1006.2
20181218091001 48 21 3.0 10.0 0.16 0.52 0.18 97 1006.4
20181218090101 47 324 3.0 9.0 0.15 0.49 0.15 98 1006.6
20181218085201 47 353 3.0 12.0 0.14 0.47 0.13 97 1006.5
20181218084302 47 353 3.0 7.0 0.12 0.44 0.11 97 1006.7
20181218083401 47 355 3.0 8.0 0.11 0.42 0.08 97 1006.8
20181218082501 47 297 4.0 13.0 0.10 0.39 0.06 97 1006.8
20181218081601 47 351 3.0 12.0 0.09 0.37 0.03 97 1006.9
20181218080702 47 307 3.0 12.0 0.08 0.35 0.01 97 1007.1
20181218075804 47 357 3.0 10.0 0.07 0.34 0.34 97 1007.2
20181218074901 47 27 4.0 10.0 0.07 0.33 0.33 97 1007.3
20181218074001 47 292 3.0 11.0 0.06 0.31 0.32 97 1007.4
20181218073101 46 339 2.0 7.0 0.05 0.30 0.30 97 1007.4
20181218072201 46 14 3.0 12.0 0.05 0.29 0.29 96 1007.4
20181218071301 46 7 3.0 11.0 0.04 0.28 0.28 96 1007.6
20181218070401 46 337 3.0 9.0 0.03 0.27 0.27 96 1007.7
20181218065501 46 356 4.0 9.0 0.03 0.26 0.26 96 1007.8
20181218064601 46 1 3.0 9.0 0.03 0.26 0.26 96 1007.7
20181218063701 46 12 3.0 8.0 0.03 0.25 0.25 96 1007.7
20181218062802 46 331 3.0 10.0 0.03 0.25 0.25 96 1007.8
20181218061901 46 341 3.0 8.0 0.02 0.24 0.24 96 1007.8
20181218061001 46 338 3.0 10.0 0.02 0.24 0.24 95 1007.8
20181218060101 46 330 2.0 8.0 0.02 0.23 0.23 95 1007.8
20181218055201 46 21 3.0 8.0 0.02 0.23 0.23 95 1007.6
20181218054301 46 11 3.0 9.0 0.02 0.23 0.23 95 1007.6
20181218053401 46 44 3.0 13.0 0.02 0.22 0.22 95 1007.8
20181218052501 46 46 2.0 9.0 0.02 0.22 0.22 95 1007.9
20181218051601 46 336 3.0 12.0 0.03 0.22 0.22 95 1007.9
20181218050702 46 17 3.0 9.0 0.02 0.21 0.21 95 1007.9
20181218045801 46 32 3.0 8.0 0.02 0.21 0.21 95 1008.1
20181218044901 46 338 3.0 10.0 0.03 0.21 0.21 95 1008.3
20181218044001 46 303 2.0 10.0 0.03 0.21 0.21 96 1008.3
20181218043101 46 335 2.0 9.0 0.03 0.20 0.20 96 1008.2
20181218042201 46 12 2.0 10.0 0.04 0.20 0.20 95 1008.2
20181218041301 46 2 2.0 7.0 0.04 0.20 0.19 95 1008.4
20181218040401 46 343 3.0 9.0 0.05 0.20 0.19 95 1008.1
20181218035501 46 350 3.0 12.0 0.05 0.20 0.19 95 1008.4
20181218034601 46 318 3.0 9.0 0.05 0.19 0.18 95 1008.5
20181218033701 46 335 3.0 8.0 0.04 0.18 0.17 95 1008.6
20181218032801 46 315 3.0 9.0 0.04 0.18 0.17 95 1008.7
20181218031901 46 286 3.0 9.0 0.04 0.17 0.16 95 1008.8
20181218031001 46 330 3.0 9.0 0.03 0.16 0.15 95 1009.0
20181218030101 46 336 3.0 10.0 0.03 0.15 0.14 95 1008.9
20181218025201 46 331 2.0 12.0 0.03 0.15 0.14 95 1008.6
20181218024301 46 332 1.0 4.0 0.03 0.14 0.13 95 1009.0
20181218023401 46 22 2.0 7.0 0.04 0.14 0.13 95 1008.8
20181218022501 46 7 2.0 6.0 0.04 0.13 0.12 95 1009.0
20181218021601 46 13 2.0 7.0 0.05 0.13 0.12 95 1009.3
20181218020701 46 333 2.0 7.0 0.05 0.12 0.11 95 1009.6
20181218015801 46 26 2.0 5.0 0.05 0.13 0.11 95 1009.6
20181218014902 47 349 2.0 7.0 0.05 0.13 0.10 94 1009.8
20181218014001 47 22 2.0 7.0 0.05 0.13 0.10 94 1009.9
20181218013101 47 358 2.0 7.0 0.05 0.12 0.09 94 1010.1
20181218012201 47 13 2.0 8.0 0.04 0.11 0.08 93 1010.2
20181218011301 47 335 2.0 9.0 0.03 0.10 0.07 92 1010.2
20181218010402 47 318 2.0 12.0 0.03 0.09 0.06 92 1010.4
20181218005501 47 320 2.0 7.0 0.02 0.08 0.06 93 1010.3
20181218004602 47 325 2.0 8.0 0.02 0.08 0.05 93 1010.2
20181218003701 48 321 2.0 5.0 0.03 0.08 0.05 92 1010.1
20181218002801 48 3 2.0 6.0 0.02 0.07 0.04 92 1009.9
20181218001901 48 357 2.0 5.0 0.02 0.07 0.04 92 1010.2
20181218001001 48 289 2.0 8.0 0.01 0.06 0.03 92 1010.3
20181218000101 48 278 2.0 4.0 0.01 0.06 0.03 92 1010.2
20181217235202 48 299 2.0 5.0 0.01 0.06 0.03 91 1010.2
20181217234301 48 308 2.0 5.0 0.01 0.06 0.03 91 1010.2
20181217233401 48 321 2.0 5.0 0.00 0.05 0.02 92 1010.2
20181217232501 48 322 1.0 4.0 0.00 0.05 0.02 92 1010.4
20181217231602 48 327 1.0 4.0 0.00 0.05 0.02 92 1010.6
20181217230701 48 288 1.0 2.0 0.00 0.05 0.02 92 1010.5
20181217225804 48 288 1.0 2.0 0.00 0.05 0.02 91 1010.6
20181217224901 48 288 1.0 2.0 0.00 0.05 0.02 91 1010.9
20181217224002 48 328 2.0 4.0 0.00 0.05 0.02 90 1011.0
20181217223102 49 324 2.0 7.0 0.00 0.05 0.02 89 1011.1
20181217222202 49 320 2.0 8.0 0.00 0.05 0.02 89 1011.5
20181217221303 49 21 2.0 4.0 0.00 0.05 0.02 88 1011.5
20181217220401 49 38 2.0 4.0 0.00 0.06 0.02 90 1011.6
20181217215501 49 34 1.0 4.0 0.00 0.07 0.02 90 1011.6
20181217214601 49 73 1.0 3.0 0.00 0.08 0.02 90 1011.9
20181217213702 49 44 1.0 5.0 0.00 0.09 0.02 89 1011.8
20181217212801 49 15 1.0 3.0 0.00 0.10 0.02 89 1011.7
20181217211902 49 347 1.0 2.0 0.00 0.10 0.02 90 1012.1
20181217211001 49 301 1.0 3.0 0.00 0.11 0.02 89 1012.2
20181217210102 49 12 1.0 3.0 0.00 0.13 0.02 90 1012.1
20181217205201 49 36 1.0 4.0 0.00 0.13 0.02 89 1012.1
20181217204301 49 343 1.0 3.0 0.00 0.15 0.02 90 1012.2
20181217203402 49 58 1.0 3.0 0.00 0.16 0.02 91 1012.3
20181217202502 49 324 1.0 2.0 0.00 0.17 0.02 92 1012.2
20181217201602 48 320 1.0 3.0 0.00 0.19 0.02 92 1012.4
20181217200702 48 344 1.0 4.0 0.00 0.19 0.02 91 1012.4
20181217195803 48 312 2.0 8.0 0.00 0.21 0.02 91 1012.5
20181217194902 48 162 1.0 6.0 0.00 0.22 0.02 93 1012.6
20181217194001 48 107 1.0 6.0 0.00 0.23 0.02 91 1012.7
20181217193101 48 24 1.0 6.0 0.00 0.23 0.02 92 1012.9
20181217191304 47 146 1.0 5.0 0.00 0.24 0.02 93 1013.1
20181217190402 47 108 1.0 9.0 0.00 0.25 0.02 94 1013.0
20181217185503 47 49 1.0 4.0 0.00 0.25 0.02 94 1013.2
20181217184603 47 279 1.0 3.0 0.00 0.26 0.02 95 1013.2
20181217183703 47 212 1.0 6.0 0.00 0.26 0.02 94 1013.1
20181217182804 47 293 1.0 4.0 0.00 0.26 0.02 95 1013.0
20181217181902 47 289 1.0 2.0 0.00 0.26 0.02 97 1013.3
20181217181004 46 305 1.0 4.0 0.00 0.26 0.02 97 1014.0
20181217180103 46 355 1.0 3.0 0.00 0.26 0.02 97 1014.1
20181217175203 45 304 1.0 4.0 0.00 0.26 0.02 98 1013.9
20181217174304 45 270 0.0 1.0 0.00 0.26 0.02 98 1013.8
20181217173402 45 270 0.0 2.0 0.00 0.26 0.02 98 1013.7
20181217172503 44 289 1.0 3.0 0.00 0.26 0.02 98 1013.7
20181217171605 44 325 1.0 4.0 0.00 0.26 0.02 98 1013.9
20181217170703 44 334 2.0 3.0 0.00 0.26 0.02 98 1013.7
20181217165804 44 300 2.0 7.0 0.00 0.26 0.02 98 1013.8
20181217164903 44 305 1.0 3.0 0.00 0.26 0.02 98 1013.6
20181217164003 44 307 1.0 3.0 0.00 0.26 0.02 98 1013.5
20181217163103 44 308 1.0 3.0 0.00 0.26 0.02 98 1013.5
20181217162203 43 321 1.0 3.0 0.00 0.26 0.02 98 1013.4
20181217161304 43 327 1.0 2.0 0.00 0.26 0.02 98 1013.3
20181217160403 43 340 1.0 3.0 0.00 0.26 0.02 98 1013.1
20181217155503 43 344 1.0 2.0 0.00 0.26 0.02 98 1013.1
20181217154602 43 340 1.0 3.0 0.00 0.26 0.02 98 1013.0
20181217153702 44 278 1.0 2.0 0.00 0.26 0.02 98 1012.9
20181217152804 44 286 1.0 4.0 0.00 0.26 0.02 98 1012.8
20181217151902 44 302 1.0 5.0 0.00 0.26 0.02 98 1012.9
20181217151002 44 342 1.0 3.0 0.00 0.26 0.02 98 1013.2
20181217150102 44 128 1.0 2.0 0.00 0.26 0.02 98 1013.0
20181217145203 44 65 1.0 4.0 0.00 0.26 0.02 98 1013.1
20181217144305 44 322 1.0 3.0 0.00 0.26 0.02 98 1013.2
20181217143403 44 314 1.0 5.0 0.00 0.26 0.02 98 1013.4
20181217142502 44 319 1.0 5.0 0.00 0.26 0.02 98 1013.4
20181217141602 44 319 0.0 2.0 0.00 0.26 0.02 98 1013.4
20181217140703 44 319 1.0 2.0 0.00 0.26 0.02 98 1013.4
20181217135805 44 332 1.0 3.0 0.00 0.26 0.02 98 1013.3
20181217134903 44 14 0.0 2.0 0.00 0.27 0.02 98 1013.1
20181217134003 44 14 0.0 2.0 0.00 0.27 0.02 98 1013.2